| time (UTC) | temp F | wind direction | speed knots | gust knots | rain 1hr in | rain 24hr in | rain mn in | humidity % | barometer mb |
| 20260503211518 | 91 | 360 | 0.0 | 9.6 | 0.00 | 0.00 | 0.00 | 16 | 1008.3 |
| 20260503210019 | 92 | 360 | 4.3 | 13.9 | 0.00 | 0.00 | 0.00 | 16 | 1008.5 |
| 20260503204515 | 91 | 360 | 0.9 | 14.8 | 0.00 | 0.00 | 0.00 | 17 | 1008.2 |
| 20260503203018 | 92 | 170 | 7.8 | 13.0 | 0.00 | 0.00 | 0.00 | 16 | 1008.0 |
| 20260503201515 | 91 | 360 | 0.0 | 5.2 | 0.00 | 0.00 | 0.00 | 18 | 1008.2 |
| 20260503200014 | 91 | 360 | 5.2 | 13.0 | 0.00 | 0.00 | 0.00 | 18 | 1008.5 |
| 20260503194515 | 91 | 236 | 5.2 | 13.0 | 0.00 | 0.00 | 0.00 | 18 | 1008.5 |
| 20260503193011 | 91 | 169 | 1.7 | 13.0 | 0.00 | 0.00 | 0.00 | 19 | 1008.5 |
| 20260503191510 | 91 | 360 | 0.9 | 13.0 | 0.00 | 0.00 | 0.00 | 19 | 1008.9 |
| 20260503190010 | 90 | 360 | 0.0 | 3.5 | 0.00 | 0.00 | 0.00 | 19 | 1009.1 |
| 20260503184511 | 89 | 360 | 0.0 | 4.3 | 0.00 | 0.00 | 0.00 | 18 | 1009.4 |
| 20260503183001 | 88 | 228 | 0.0 | 0.0 | 0.00 | 0.00 | 0.00 | 19 | 1009.8 |
| 20260503181501 | 88 | 360 | 0.0 | 3.5 | 0.00 | 0.00 | 0.00 | 20 | 1009.9 |
| 20260503180001 | 87 | 189 | 1.7 | 7.0 | 0.00 | 0.00 | 0.00 | 20 | 1010.3 |
| 20260503174601 | 88 | 125 | 0.9 | 4.3 | 0.00 | 0.00 | 0.00 | 19 | 1010.1 |
| 20260503173058 | 86 | 360 | 0.0 | 7.0 | 0.00 | 0.00 | 0.00 | 21 | 1010.1 |
| 20260503171610 | 85 | 360 | 0.0 | 4.3 | 0.00 | 0.00 | 0.00 | 23 | 1010.2 |
| 20260503081537 | 73 | 360 | 0.0 | 0.0 | 0.00 | 0.00 | 0.00 | 32 | 1009.0 |
| 20260503071540 | 74 | 360 | 0.0 | 0.0 | 0.00 | 0.00 | 0.00 | 34 | 1009.1 |
| 20260503054526 | 79 | 360 | 0.0 | 0.0 | 0.00 | 0.00 | 0.00 | 29 | 1008.3 |
| 20260503053023 | 80 | 360 | 0.0 | 0.0 | 0.00 | 0.00 | 0.00 | 28 | 1008.1 |
| 20260503051523 | 81 | 360 | 0.0 | 0.0 | 0.00 | 0.00 | 0.00 | 28 | 1008.0 |
| 20260503050022 | 81 | 360 | 0.0 | 0.0 | 0.00 | 0.00 | 0.00 | 27 | 1007.7 |
| 20260503044540 | 82 | 360 | 0.0 | 2.6 | 0.00 | 0.00 | 0.00 | 26 | 1007.7 |
| 20260503043036 | 82 | 360 | 0.0 | 8.7 | 0.00 | 0.00 | 0.00 | 26 | 1007.6 |
| 20260503041519 | 83 | 360 | 0.0 | 10.4 | 0.00 | 0.00 | 0.00 | 26 | 1007.2 |
| 20260503040019 | 83 | 360 | 0.9 | 10.4 | 0.00 | 0.00 | 0.00 | 26 | 1007.0 |
| 20260503034518 | 83 | 360 | 2.6 | 9.6 | 0.00 | 0.00 | 0.00 | 26 | 1006.9 |
| 20260503033018 | 84 | 360 | 0.9 | 12.2 | 0.00 | 0.00 | 0.00 | 26 | 1006.8 |
| 20260503031525 | 84 | 360 | 2.6 | 11.3 | 0.00 | 0.00 | 0.00 | 26 | 1006.6 |
| 20260503030016 | 84 | 360 | 4.3 | 13.0 | 0.00 | 0.00 | 0.00 | 26 | 1006.3 |
| 20260503024516 | 85 | 360 | 2.6 | 12.2 | 0.00 | 0.00 | 0.00 | 26 | 1006.5 |
| 20260503023015 | 86 | 360 | 4.3 | 14.8 | 0.00 | 0.00 | 0.00 | 25 | 1006.3 |
| 20260503021516 | 86 | 360 | 0.9 | 13.0 | 0.00 | 0.00 | 0.00 | 25 | 1006.1 |
| 20260503020015 | 87 | 360 | 5.2 | 11.3 | 0.00 | 0.00 | 0.00 | 24 | 1005.8 |
| 20260503014514 | 88 | 360 | 5.2 | 11.3 | 0.00 | 0.00 | 0.00 | 24 | 1005.5 |
| 20260503013014 | 89 | 360 | 2.6 | 12.2 | 0.00 | 0.00 | 0.00 | 24 | 1005.5 |
| 20260503011514 | 90 | 228 | 7.0 | 12.2 | 0.00 | 0.00 | 0.00 | 23 | 1005.4 |
| 20260503010013 | 91 | 258 | 7.8 | 14.8 | 0.00 | 0.00 | 0.00 | 23 | 1005.3 |
| 20260503004514 | 92 | 360 | 7.0 | 14.8 | 0.00 | 0.00 | 0.00 | 23 | 1005.2 |
| 20260503003011 | 93 | 360 | 7.0 | 14.8 | 0.00 | 0.00 | 0.00 | 22 | 1005.1 |
| 20260503001511 | 94 | 360 | 2.6 | 8.7 | 0.00 | 0.00 | 0.00 | 22 | 1005.0 |
| 20260503000016 | 95 | 360 | 0.0 | 1.7 | 0.00 | 0.00 | 0.00 | 19 | 1005.1 |
| 20260502234512 | 95 | 360 | 0.0 | 5.2 | 0.00 | 0.00 | 0.00 | 19 | 1004.9 |
| 20260502233010 | 95 | 360 | 0.9 | 7.8 | 0.00 | 0.00 | 0.00 | 19 | 1004.9 |
| 20260502231509 | 96 | 360 | 3.5 | 9.6 | 0.00 | 0.00 | 0.00 | 19 | 1004.9 |
| 20260502230010 | 95 | 261 | 3.5 | 12.2 | 0.00 | 0.00 | 0.00 | 19 | 1004.9 |
| 20260502224507 | 96 | 290 | 4.3 | 9.6 | 0.00 | 0.00 | 0.00 | 18 | 1004.9 |
| 20260502223015 | 95 | 360 | 0.9 | 12.2 | 0.00 | 0.00 | 0.00 | 19 | 1005.3 |
| 20260502221504 | 97 | 360 | 0.0 | 7.0 | 0.00 | 0.00 | 0.00 | 18 | 1005.2 |
| 20260502220004 | 97 | 170 | 1.7 | 9.6 | 0.00 | 0.00 | 0.00 | 17 | 1005.1 |
| 20260502214504 | 97 | 360 | 0.0 | 5.2 | 0.00 | 0.00 | 0.00 | 17 | 1005.3 |
| 20260502213059 | 97 | 250 | 0.0 | 7.0 | 0.00 | 0.00 | 0.00 | 18 | 1005.6 |